Terug naar catalogus

HAWK-6C

ActiefWetenschapVLEO
NORAD 55326·PAYLOAD·🇺🇸 United States

Gelanceerd Jan 24, 2023 vanaf Wallops Flight Facility

Loading…

Volgende Passages (komende 24 uur)

TLE

VersSource: Space-Track

Epoch: Sep 14, 2026, 03:34 UTC

1 55326U 23011C   26257.14924168  .00003883  00000-0  16683-3 0  9994
2 55326  40.4964 189.7379 0004365 282.1255  77.9066 15.23599909201423

Volg HAWK-6C in realtime met AllMySat

Download on the App Store